| time (UTC) | temp F | wind direction | speed knots | gust knots | rain 1hr in | rain 24hr in | rain mn in | humidity % | barometer mb |
| 20260506192805 | 59 | 252 | 0.0 | 0.0 | 0.05 | 0.09 | 0.09 | 95 | 1009.1 |
| 20260506191806 | 59 | 202 | 0.0 | 2.6 | 0.06 | 0.08 | 0.08 | 95 | 1009.2 |
| 20260506190806 | 59 | 174 | 0.0 | 0.0 | 0.07 | 0.08 | 0.08 | 94 | 1009.6 |
| 20260506185805 | 59 | 158 | 0.0 | 0.0 | 0.06 | 0.07 | 0.07 | 93 | 1009.4 |
| 20260506185309 | 60 | 134 | 0.0 | 0.0 | 0.06 | 0.06 | 0.06 | 93 | 1009.1 |
| 20260506183805 | 60 | 120 | 0.0 | 0.0 | 0.05 | 0.05 | 0.05 | 91 | 1009.5 |
| 20260506182806 | 61 | 164 | 0.0 | 0.0 | 0.04 | 0.04 | 0.04 | 90 | 1009.7 |
| 20260506181805 | 62 | 155 | 0.0 | 0.0 | 0.02 | 0.02 | 0.02 | 89 | 1009.8 |
| 20260506180804 | 62 | 207 | 0.0 | 0.0 | 0.01 | 0.01 | 0.01 | 86 | 1009.9 |
| 20260506175803 | 64 | 166 | 0.0 | 0.0 | 0.01 | 0.01 | 0.01 | 85 | 1010.1 |
| 20260506174754 | 64 | 159 | 0.0 | 0.0 | 0.00 | 0.00 | 0.00 | 81 | 1010.0 |
| 20260506173755 | 66 | 158 | 0.0 | 0.0 | 0.00 | 0.00 | 0.00 | 79 | 1010.2 |
| 20260506172754 | 67 | 109 | 0.0 | 0.0 | 0.00 | 0.00 | 0.00 | 76 | 1010.5 |
| 20260506171755 | 68 | 236 | 0.0 | 1.7 | 0.00 | 0.00 | 0.00 | 74 | 1010.3 |
| 20260506170754 | 69 | 188 | 0.0 | 2.6 | 0.00 | 0.00 | 0.00 | 72 | 1010.1 |
| 20260506165755 | 70 | 149 | 0.0 | 0.0 | 0.00 | 0.00 | 0.00 | 70 | 1010.1 |
| 20260506164752 | 70 | 158 | 0.0 | 0.9 | 0.00 | 0.00 | 0.00 | 71 | 1010.1 |
| 20260506163753 | 70 | 146 | 0.0 | 5.2 | 0.00 | 0.00 | 0.00 | 70 | 1010.2 |
| 20260506162754 | 70 | 140 | 0.0 | 0.0 | 0.00 | 0.00 | 0.00 | 70 | 1010.2 |
| 20260506161753 | 69 | 185 | 0.0 | 0.0 | 0.00 | 0.00 | 0.00 | 71 | 1010.3 |
| 20260506160753 | 70 | 233 | 0.0 | 0.0 | 0.00 | 0.00 | 0.00 | 70 | 1010.6 |
| 20260506155753 | 70 | 184 | 0.0 | 0.0 | 0.00 | 0.00 | 0.00 | 70 | 1010.7 |
| 20260506154753 | 70 | 205 | 0.0 | 0.0 | 0.00 | 0.00 | 0.00 | 70 | 1010.7 |
| 20260506153753 | 70 | 226 | 0.0 | 3.5 | 0.00 | 0.00 | 0.00 | 69 | 1010.7 |
| 20260506152752 | 70 | 154 | 0.0 | 7.8 | 0.00 | 0.00 | 0.00 | 69 | 1010.9 |
| 20260506151752 | 70 | 258 | 0.0 | 0.0 | 0.00 | 0.00 | 0.00 | 71 | 1010.9 |
| 20260506150747 | 70 | 269 | 0.0 | 3.5 | 0.00 | 0.00 | 0.00 | 71 | 1011.0 |
| 20260506145748 | 70 | 238 | 0.0 | 5.2 | 0.00 | 0.00 | 0.00 | 70 | 1011.2 |
| 20260506144748 | 70 | 214 | 0.0 | 0.0 | 0.00 | 0.00 | 0.00 | 72 | 1011.1 |
| 20260506143746 | 68 | 262 | 0.0 | 5.2 | 0.00 | 0.00 | 0.00 | 73 | 1011.3 |
| 20260506142746 | 68 | 115 | 0.9 | 5.2 | 0.00 | 0.00 | 0.00 | 75 | 1011.2 |
| 20260506142247 | 68 | 103 | 0.0 | 6.1 | 0.00 | 0.00 | 0.00 | 75 | 1011.3 |
| 20260506140748 | 68 | 196 | 0.0 | 0.0 | 0.00 | 0.00 | 0.00 | 74 | 1011.4 |
| 20260506140248 | 68 | 208 | 0.0 | 0.0 | 0.00 | 0.00 | 0.00 | 76 | 1011.0 |
| 20260506134750 | 68 | 185 | 0.0 | 0.0 | 0.00 | 0.00 | 0.00 | 76 | 1011.1 |
| 20260506133741 | 67 | 229 | 0.0 | 0.9 | 0.00 | 0.00 | 0.00 | 78 | 1011.1 |
| 20260506132741 | 67 | 301 | 0.9 | 7.8 | 0.00 | 0.00 | 0.00 | 78 | 1011.3 |
| 20260506131740 | 67 | 180 | 0.0 | 0.0 | 0.00 | 0.00 | 0.00 | 79 | 1011.2 |
| 20260506130738 | 65 | 242 | 1.7 | 5.2 | 0.00 | 0.00 | 0.00 | 81 | 1011.6 |
| 20260506125738 | 65 | 172 | 0.9 | 4.3 | 0.00 | 0.00 | 0.00 | 82 | 1011.8 |
| 20260506124739 | 63 | 168 | 0.9 | 5.2 | 0.00 | 0.00 | 0.00 | 85 | 1011.7 |
| 20260506123738 | 62 | 174 | 0.0 | 0.0 | 0.00 | 0.00 | 0.00 | 85 | 1011.8 |
| 20260506122739 | 62 | 205 | 0.0 | 0.0 | 0.00 | 0.00 | 0.00 | 86 | 1011.8 |
| 20260506121737 | 62 | 193 | 0.0 | 0.0 | 0.00 | 0.00 | 0.00 | 87 | 1011.8 |
| 20260506121241 | 62 | 104 | 0.0 | 3.5 | 0.00 | 0.00 | 0.00 | 87 | 1011.9 |
| 20260506115738 | 62 | 158 | 0.0 | 3.5 | 0.00 | 0.00 | 0.00 | 87 | 1011.8 |
| 20260506112737 | 59 | 150 | 0.0 | 0.0 | 0.00 | 0.00 | 0.00 | 91 | 1012.0 |
| 20260506111735 | 58 | 162 | 0.0 | 3.5 | 0.00 | 0.00 | 0.00 | 91 | 1012.1 |
| 20260506110737 | 58 | 172 | 0.0 | 2.6 | 0.00 | 0.00 | 0.00 | 92 | 1012.2 |
| 20260506105735 | 58 | 135 | 0.0 | 0.0 | 0.00 | 0.00 | 0.00 | 93 | 1012.1 |
| 20260506104733 | 57 | 145 | 0.0 | 0.0 | 0.00 | 0.00 | 0.00 | 93 | 1012.1 |
| 20260506103732 | 57 | 148 | 0.0 | 0.0 | 0.00 | 0.00 | 0.00 | 93 | 1011.9 |
| 20260506102732 | 57 | 117 | 0.0 | 0.0 | 0.00 | 0.00 | 0.00 | 93 | 1011.8 |
| 20260506101731 | 57 | 141 | 0.0 | 0.0 | 0.00 | 0.00 | 0.00 | 92 | 1011.9 |
| 20260506100726 | 57 | 153 | 0.0 | 0.0 | 0.00 | 0.00 | 0.00 | 92 | 1011.9 |
| 20260506095726 | 57 | 155 | 0.0 | 0.0 | 0.00 | 0.00 | 0.00 | 92 | 1011.9 |
| 20260506094726 | 57 | 141 | 0.0 | 0.0 | 0.00 | 0.00 | 0.00 | 92 | 1011.9 |
| 20260506093727 | 57 | 143 | 0.0 | 0.0 | 0.00 | 0.00 | 0.00 | 91 | 1011.9 |
| 20260506092725 | 57 | 151 | 0.0 | 0.0 | 0.00 | 0.00 | 0.00 | 91 | 1011.8 |
| 20260506091726 | 57 | 153 | 0.0 | 0.0 | 0.00 | 0.00 | 0.00 | 91 | 1011.8 |
| 20260506090724 | 57 | 150 | 0.0 | 0.0 | 0.00 | 0.00 | 0.00 | 90 | 1012.0 |
| 20260506085721 | 58 | 141 | 0.0 | 0.0 | 0.00 | 0.00 | 0.00 | 90 | 1011.9 |
| 20260506084720 | 58 | 148 | 0.0 | 0.0 | 0.00 | 0.00 | 0.00 | 90 | 1012.0 |
| 20260506083719 | 58 | 115 | 0.0 | 0.0 | 0.00 | 0.00 | 0.00 | 90 | 1012.0 |
| 20260506082717 | 58 | 167 | 0.0 | 0.0 | 0.00 | 0.00 | 0.00 | 89 | 1012.1 |
| 20260506081715 | 58 | 150 | 0.0 | 0.0 | 0.00 | 0.00 | 0.00 | 89 | 1012.1 |
| 20260506080716 | 58 | 162 | 0.0 | 0.0 | 0.00 | 0.00 | 0.00 | 88 | 1012.2 |
| 20260506072717 | 59 | 166 | 0.0 | 0.0 | 0.00 | 0.00 | 0.00 | 87 | 1012.1 |
| 20260506070717 | 59 | 176 | 0.0 | 0.0 | 0.00 | 0.00 | 0.00 | 86 | 1012.0 |
| 20260506061716 | 60 | 245 | 0.0 | 0.0 | 0.00 | 0.00 | 0.00 | 84 | 1011.9 |
| 20260506060717 | 60 | 167 | 0.0 | 0.0 | 0.00 | 0.00 | 0.00 | 83 | 1011.9 |
| 20260506051214 | 62 | 180 | 0.0 | 0.0 | 0.00 | 0.00 | 0.00 | 80 | 1012.3 |
| 20260506044714 | 62 | 123 | 0.0 | 0.0 | 0.00 | 0.00 | 0.00 | 79 | 1012.4 |
| 20260506043713 | 62 | 134 | 0.0 | 0.0 | 0.00 | 0.00 | 0.00 | 78 | 1012.4 |
| 20260506042714 | 62 | 138 | 0.0 | 0.0 | 0.00 | 0.00 | 0.00 | 77 | 1012.3 |
| 20260506041713 | 62 | 142 | 0.0 | 0.0 | 0.00 | 0.00 | 0.00 | 76 | 1012.4 |
| 20260506040713 | 62 | 158 | 0.0 | 0.0 | 0.00 | 0.00 | 0.00 | 76 | 1012.3 |
| 20260506035713 | 62 | 267 | 0.0 | 1.7 | 0.00 | 0.00 | 0.00 | 75 | 1012.4 |
| 20260506034713 | 62 | 163 | 0.0 | 0.0 | 0.00 | 0.00 | 0.00 | 75 | 1012.4 |
| 20260506033712 | 62 | 229 | 0.0 | 0.0 | 0.00 | 0.00 | 0.00 | 75 | 1012.3 |
| 20260506032712 | 62 | 170 | 0.0 | 0.0 | 0.00 | 0.00 | 0.00 | 75 | 1012.3 |
| 20260506032214 | 62 | 231 | 0.0 | 0.0 | 0.00 | 0.00 | 0.00 | 75 | 1012.0 |
| 20260506030712 | 62 | 220 | 0.0 | 0.0 | 0.00 | 0.00 | 0.00 | 76 | 1012.2 |
| 20260506025716 | 62 | 233 | 0.0 | 0.0 | 0.00 | 0.00 | 0.00 | 76 | 1012.1 |
| 20260506024710 | 62 | 160 | 0.0 | 0.0 | 0.00 | 0.00 | 0.00 | 76 | 1012.3 |
| 20260506023709 | 62 | 235 | 0.0 | 0.0 | 0.00 | 0.00 | 0.00 | 75 | 1012.1 |
| 20260506022709 | 62 | 195 | 0.0 | 0.0 | 0.00 | 0.00 | 0.00 | 75 | 1012.2 |
| 20260506021708 | 62 | 244 | 0.0 | 0.0 | 0.00 | 0.00 | 0.00 | 75 | 1012.2 |
| 20260506020705 | 62 | 202 | 0.0 | 0.0 | 0.00 | 0.00 | 0.00 | 75 | 1012.2 |
| 20260506015706 | 62 | 108 | 0.0 | 0.0 | 0.00 | 0.00 | 0.00 | 74 | 1012.2 |
| 20260506014709 | 62 | 160 | 0.0 | 0.0 | 0.00 | 0.00 | 0.00 | 73 | 1012.2 |
| 20260506013707 | 62 | 143 | 0.0 | 3.5 | 0.00 | 0.00 | 0.00 | 73 | 1012.2 |
| 20260506012702 | 62 | 148 | 0.0 | 0.0 | 0.00 | 0.00 | 0.00 | 72 | 1011.9 |
| 20260506011701 | 63 | 231 | 0.0 | 0.0 | 0.00 | 0.00 | 0.00 | 72 | 1011.9 |
| 20260506010701 | 63 | 160 | 0.0 | 0.0 | 0.00 | 0.00 | 0.00 | 71 | 1011.8 |
| 20260506005700 | 63 | 143 | 0.0 | 0.0 | 0.00 | 0.00 | 0.00 | 71 | 1011.7 |
| 20260506004701 | 63 | 174 | 0.0 | 0.0 | 0.00 | 0.00 | 0.00 | 71 | 1011.6 |
| 20260506003701 | 64 | 143 | 0.0 | 0.0 | 0.00 | 0.00 | 0.00 | 70 | 1011.5 |
| 20260506003202 | 64 | 222 | 0.0 | 0.0 | 0.00 | 0.00 | 0.00 | 69 | 1011.3 |
| 20260506001700 | 65 | 236 | 0.0 | 0.0 | 0.00 | 0.00 | 0.00 | 69 | 1011.2 |
| 20260506000700 | 65 | 197 | 0.0 | 0.0 | 0.00 | 0.00 | 0.00 | 68 | 1011.1 |
| 20260505235700 | 66 | 219 | 0.0 | 0.0 | 0.00 | 0.00 | 0.00 | 67 | 1010.9 |
| 20260505234659 | 67 | 174 | 0.0 | 0.0 | 0.00 | 0.00 | 0.00 | 66 | 1010.8 |
| 20260505234201 | 67 | 241 | 0.0 | 0.0 | 0.00 | 0.00 | 0.00 | 65 | 1010.6 |
| 20260505232701 | 68 | 149 | 0.0 | 0.0 | 0.00 | 0.00 | 0.00 | 64 | 1010.4 |
| 20260505231700 | 68 | 158 | 0.0 | 1.7 | 0.00 | 0.00 | 0.00 | 62 | 1010.4 |
| 20260505230700 | 69 | 193 | 0.0 | 0.0 | 0.00 | 0.00 | 0.00 | 61 | 1010.2 |
| 20260505225659 | 70 | 272 | 0.0 | 5.2 | 0.00 | 0.00 | 0.00 | 61 | 1010.2 |
| 20260505225205 | 70 | 224 | 0.0 | 3.5 | 0.00 | 0.00 | 0.00 | 60 | 1010.0 |
| 20260505223701 | 71 | 220 | 0.0 | 1.7 | 0.00 | 0.00 | 0.00 | 58 | 1009.7 |
| 20260505223200 | 72 | 123 | 0.0 | 0.0 | 0.00 | 0.00 | 0.00 | 57 | 1009.5 |
| 20260505222158 | 72 | 201 | 0.0 | 4.3 | 0.00 | 0.00 | 0.00 | 57 | 1009.4 |
| 20260505220657 | 73 | 229 | 0.0 | 0.0 | 0.00 | 0.00 | 0.00 | 56 | 1009.5 |
| 20260505215701 | 73 | 152 | 0.0 | 2.6 | 0.00 | 0.00 | 0.00 | 55 | 1009.6 |
| 20260505214657 | 73 | 239 | 0.0 | 0.0 | 0.00 | 0.00 | 0.00 | 56 | 1009.6 |
| 20260505213658 | 74 | 208 | 0.0 | 0.9 | 0.00 | 0.00 | 0.00 | 55 | 1009.6 |
| 20260505212653 | 74 | 208 | 0.0 | 1.7 | 0.00 | 0.00 | 0.00 | 56 | 1009.7 |
| 20260505211652 | 75 | 245 | 0.0 | 0.9 | 0.00 | 0.00 | 0.00 | 54 | 1009.5 |
| 20260505210652 | 76 | 113 | 0.0 | 0.0 | 0.00 | 0.00 | 0.00 | 53 | 1009.2 |
| 20260505205652 | 76 | 184 | 0.0 | 0.0 | 0.00 | 0.00 | 0.00 | 53 | 1009.2 |
| 20260505204652 | 77 | 138 | 0.0 | 4.3 | 0.00 | 0.00 | 0.00 | 53 | 1009.5 |
| 20260505203653 | 77 | 120 | 0.0 | 0.0 | 0.00 | 0.00 | 0.00 | 54 | 1009.5 |
| 20260505202651 | 77 | 142 | 0.0 | 0.9 | 0.00 | 0.00 | 0.00 | 53 | 1009.5 |
| 20260505201652 | 78 | 139 | 0.0 | 0.9 | 0.00 | 0.00 | 0.00 | 52 | 1009.2 |
| 20260505201159 | 78 | 179 | 0.0 | 0.0 | 0.00 | 0.00 | 0.00 | 50 | 1009.2 |
| 20260505195646 | 79 | 131 | 0.9 | 8.7 | 0.00 | 0.00 | 0.00 | 49 | 1009.5 |
| 20260505194646 | 79 | 214 | 0.0 | 7.8 | 0.00 | 0.00 | 0.00 | 49 | 1009.0 |
| 20260505194147 | 80 | 140 | 0.0 | 0.9 | 0.00 | 0.00 | 0.00 | 47 | 1009.4 |